Location: Deurze
(52.9838°N, 6.6090°E)
Time: 18:15:19
(UTC+00:00)

Cosmos 1076 Rocket - Pass Details

Date: 11 March 2026
Orbit: 582 x 602 km, 82.5° (Epoch: 20 April)

Event Time Altitude Azimuth Distance (km) Brightness Sun altitude
Rises 19:11:16 0° 191° (S) 2,795 6.9 -15.8°
Reaches altitude 10° 19:13:27 10° 192° (SSW) 1,899 6.0 -16.2°
Maximum altitude 19:17:39 83° 282° (WNW) 594 3.5 -16.8°
Drops below altitude 10° 19:21:53 10° 10° (N) 1,916 6.2 -17.4°
Sets 19:24:05 0° 11° (N) 2,822 7.0 -17.7°
